TimeEST,TemperatureF,Dew PointF,Humidity,Sea Level PressureIn,VisibilityMPH,Wind Direction,Wind SpeedMPH,Gust SpeedMPH,PrecipitationIn,Events,Conditions,WindDirDegrees,DateUTC
12:51 AM,24.1,21.0,88,29.99,7.0,NNW,5.8,-,0.00,,Overcast,340,2013-01-07 05:51:00
1:23 AM,21.2,17.6,86,29.94,7.0,Variable,3.5,-,N/A,,Overcast,0,2013-01-07 06:23:00
1:49 AM,19.4,17.6,93,29.97,7.0,Calm,Calm,-,N/A,,Overcast,0,2013-01-07 06:49:00
1:51 AM,19.0,17.1,92,30.05,7.0,Variable,3.5,-,N/A,,Overcast,0,2013-01-07 06:51:00
3:51 AM,15.1,12.9,91,30.13,10.0,Calm,Calm,-,N/A,,Overcast,0,2013-01-07 08:51:00
4:51 AM,15.1,12.0,88,30.17,10.0,North,4.6,-,N/A,,Overcast,10,2013-01-07 09:51:00
5:51 AM,14.0,12.0,92,30.20,9.0,West,4.6,-,N/A,,Overcast,260,2013-01-07 10:51:00
6:51 AM,15.1,12.0,88,30.23,8.0,Calm,Calm,-,N/A,,Overcast,0,2013-01-07 11:51:00
7:51 AM,14.0,12.0,92,30.26,5.0,Variable,6.9,-,N/A,,Overcast,0,2013-01-07 12:51:00
8:18 AM,14.0,12.2,93,30.20,2.0,Calm,Calm,-,0.00,Snow,Light Snow,0,2013-01-07 13:18:00
8:51 AM,15.1,12.0,88,30.29,2.5,Calm,Calm,-,0.00,,Overcast,0,2013-01-07 13:51:00
9:09 AM,15.8,12.2,86,30.22,3.0,Variable,4.6,-,N/A,,Overcast,0,2013-01-07 14:09:00
9:36 AM,15.8,12.2,86,30.23,2.0,WSW,4.6,-,0.00,Snow,Light Snow,240,2013-01-07 14:36:00
9:51 AM,15.1,10.9,84,30.31,2.5,West,5.8,-,0.00,,Overcast,260,2013-01-07 14:51:00
10:04 AM,15.8,10.4,79,30.24,1.5,Variable,3.5,-,N/A,,Overcast,0,2013-01-07 15:04:00
10:19 AM,15.8,10.4,79,30.25,2.0,SW,6.9,-,0.00,Snow,Light Snow,230,2013-01-07 15:19:00
10:33 AM,15.8,10.4,79,30.25,1.5,WSW,4.6,-,0.00,Snow,Light Snow,250,2013-01-07 15:33:00
10:51 AM,16.0,10.9,81,30.33,3.0,SW,6.9,-,0.00,Snow,Light Snow,230,2013-01-07 15:51:00
11:51 AM,16.0,10.9,81,30.32,7.0,Variable,4.6,-,0.00,,Overcast,0,2013-01-07 16:51:00
12:51 PM,16.0,10.9,81,30.30,10.0,WSW,8.1,-,N/A,,Scattered Clouds,240,2013-01-07 17:51:00
1:51 PM,19.0,14.0,81,30.30,10.0,SW,6.9,-,N/A,,Clear,220,2013-01-07 18:51:00
2:51 PM,19.9,12.9,74,30.32,10.0,WSW,9.2,-,N/A,,Clear,240,2013-01-07 19:51:00
3:51 PM,19.9,12.9,74,30.31,10.0,SW,5.8,-,N/A,,Clear,230,2013-01-07 20:51:00
4:51 PM,14.0,10.9,88,30.30,10.0,Calm,Calm,-,N/A,,Clear,0,2013-01-07 21:51:00
5:51 PM,10.0,8.1,92,30.30,2.0,Calm,Calm,-,N/A,,Clear,0,2013-01-07 22:51:00
6:04 PM,10.4,6.8,85,30.19,10.0,Calm,Calm,-,N/A,,Clear,0,2013-01-07 23:04:00
6:51 PM,6.1,3.9,91,30.29,10.0,South,3.5,-,N/A,,Clear,190,2013-01-07 23:51:00
7:51 PM,14.0,10.9,88,30.27,10.0,SW,12.7,-,N/A,,Clear,230,2013-01-08 00:51:00
8:23 PM,15.8,12.2,86,30.16,10.0,SW,15.0,-,N/A,,Mostly Cloudy,220,2013-01-08 01:23:00
8:51 PM,16.0,14.0,92,30.25,10.0,SW,10.4,-,N/A,,Overcast,230,2013-01-08 01:51:00
9:51 PM,15.1,12.9,91,30.23,10.0,SW,6.9,-,N/A,,Partly Cloudy,220,2013-01-08 02:51:00
10:51 PM,15.1,12.0,88,30.22,10.0,Calm,Calm,-,N/A,,Clear,0,2013-01-08 03:51:00
11:51 PM,16.0,14.0,92,30.18,10.0,SSW,11.5,-,N/A,,Clear,210,2013-01-08 04:51:00